Regional Weather Roundup
Issued by NWS Newport/Morehead, NC

Current Version | Previous Version | Graphics & Text | Print | Product List | Glossary On
Versions: 1 2 3 4 5 6 7 8 9 10 11 12 13 14 15 16 17 18 19 20 21 22 23 24 25 26 27 28 29 30 31 32 33 34 35 36 37 38 39 40 41 42 43 44 45 46 47 48 49 50
000 ASUS42 KMHX 271725 RWRMHX WEATHER ROUNDUP FOR EASTERN NORTH CAROLINA NATIONAL WEATHER SERVICE NEWPORT/MOREHEAD CITY NC 100 PM EDT THU APR 27 2017 NOTE: "FAIR" INDICATES FEW OR NO CLOUDS BELOW 12,000 FEET WITH NO SIGNIFICANT WEATHER AND/OR OBSTRUCTIONS TO VISIBILITY NCZ015>017-031-032-045>047-102-103-271800- NORTH COAST CITY SKY/WX TMP DP RH WIND PRES REMARKS EDENTON SUNNY 82 63 51 SW12 29.91F ELIZABETH CITY SUNNY 80 65 59 SW16G24 29.91F KITTY HAWK SUNNY 79 64 59 S3 29.92F MANTEO MOSUNNY 76 67 74 S15 29.94F $$ NCZ045>047-081-094-103-104-271800- CENTRAL COAST CITY SKY/WX TMP DP RH WIND PRES REMARKS FRISCO SUNNY 80 66 62 S5 29.96F HAZE $$ NCZ095-097-098-100-101-271800- SOUTHERN COAST CITY SKY/WX TMP DP RH WIND PRES REMARKS BEAUFORT SUNNY 76 69 79 SW16 29.95F CEDAR ISLAND NOT AVBL JACKSONVILLE NOT AVBL PINEY ISLAND MOSUNNY N/A N/A N/A SW14 29.94F WILMINGTON MOSUNNY 81 57 43 S17G25 29.91F $$ NCZ011>013-027>030-043-044-078>080-089-090>093-098-271800- COASTAL PLAIN CITY SKY/WX TMP DP RH WIND PRES REMARKS AHOSKIE N/A 79 60 51 S12G20 29.87F CLINTON SUNNY 81 58 45 SW9 29.90F ELIZABETHTOWN MOSUNNY 82 57 43 S9G17 29.90F GOLDSBORO MOSUNNY 81 59 47 SW14G20 29.88F GREENVILLE MOSUNNY 81 63 54 S13 29.91F HAVELOCK NOT AVBL KENANSVILLE SUNNY 81 57 44 S6 29.90F KINSTON MOSUNNY 82 61 47 S13 29.90F NEW BERN PTSUNNY 81 62 52 SW10 29.92F RICHLANDS MOSUNNY 82 61 48 S12 29.90F ROCKY MOUNT MOSUNNY 79 65 62 S8 29.89F WASHINGTON MOSUNNY 80 61 52 SW10 29.89F WHITEVILLE MOSUNNY 82 58 44 S13 29.91S $$ AMZ130-135-150-152-154-156-158-170-250-252-270-ANZ085-086-088-633-658-670-271800- MARINE OBSERVATIONS STATION/POSITION TIME TEMP WIND PRES WAVE SWELL AIR SEA DIR/SP/G HT/PER HT/PER (UTC) (F) (DEG/KT/KT) (MB) (FT/S) (FT/S) CHESAPEAKE LIGHT NOT AVBL 64 E VA BEACH 1650 60 56 210/ 10/ 10 1014.7 5/ 9 5/ 9 DUCK 1700 77 58 210/ 11/ 14 1012.7 2 E DUCK 1630 62 N/A 3/10 2/13 OREGON INLET 1700 73 69 170/ 9/ 12 1013.9 13E OREGON INLT 1648 62 N/A 5/11 5/11 HATTERAS CG 1654 75 69 140/ 4/ 6 1014.2 DIAMOND BUOY 1650 77 77 210/ 14/ 17 1014.5 5/ 9 3/ 9 CAPE LOOKOUT 1700 75 220/ 8/ 11 1013.9 BEAUFORT LAB 1700 74 67 200/ 11/ 14 1013.2 30 SE NEW RVR IN 1708 72 220/ 8/ 10 1014.5 30 SE NEW RVR IN 1643 72 N/A 4/ 9 2/11 27 SE WRIGHTSVLE 1708 73 73 170/ 6/ 10 1013.4 5 SE WRIGHTSVLE 1708 72 71 160/ 10/ 16 1013.3 225 S CAPE HAT 1650 74 75 180/ 16/ 17 1018.0 5/ 8 3/ 8 41 SE CHARLESTON 1700 75 73 160/ 6/ 8 1013.9 $$

USA.gov is the U.S. government's official web portal to all federal, state and local government web resources and services.